Погода в Даугавпилсе

Погода в Даугавпилсе : погода сейчас, прогноз погоды и архив. Всё, что Вы хотите узнать о погоде в Даугавпилсе!

Поиск расширенной информации на нашем сайте:

Другие новости

Новости СМИ2

Главная страница сайта

Новости сайта

03.07.2017

Напоминаем, что на нашем специализированном сайте Метеоцентр.Азия вы можете получить высокодетализированные автоматические прогнозы погоды по пунктам России, СНГ и мира в авиационном формате (включающие направление и скорость ветра, видимость, явления погоды, количество и форму облачности, нижнюю и верхнюю границу облачности).


Погода в Даугавпилсе - сегодня

Время (UTC), дата Ветер
(°,м/с) 
Видим.   Явления Облачность Т
(°С)
Тd
(°С)
f(%) Тe
(°С)
Pmin
(гПа)
dP
(гПа)
Po
(мм)
O2
(г/м3)
Тmin Tmax R s Состояние
почвы
15 22.09.18 200 (Ю) 2-4  н/о    н/о 
+13.2 +8.9 75 +14  1010.6  0.2  749  286           
18 22.09.18 230 (ЮЗ) 2-3  н/о    н/о 
+9.9 +8.5 91 +10  1011  0.2  749  290           
21 22.09.18 200 (Ю) 1-2  н/о    н/о 
+8.5 +7.5 93 +10  1010.6  -0.5  749  291           
00 23.09.18 190 (Ю) 1-2  н/о    н/о 
+7.8 +6.8 93 +9  1010  -0.6  749  292           
03 23.09.18 200 (Ю) 2-5  н/о    н/о 
+8.2 +6.3 88 +8  1008.4  -1.5  747  291           
06 23.09.18 200 (Ю) 3-7  н/о    н/о 
+9.7 +7.2 84 +9  1007.9  -0.5  747  289           
09 23.09.18 220 (ЮЗ) 4-8  н/о    н/о 
+12.6 +6.4 66 +12  1007.7  747  287           
12 23.09.18 220 (ЮЗ) 4-7  н/о    н/о 
+14.4 +6.4 59 +14  1007.5  -0.1  747  285           
15 23.09.18 220 (ЮЗ) 4-7  н/о    н/о 
+13.3 +5.4 59 +13  1007.1  -0.5  747  286           
18 23.09.18 210 (ЮЗ) 2-5  н/о    н/о 
+10 +6.5 79 +10  1007  -0.3  746  289           
21 23.09.18 210 (ЮЗ) 1-3  н/о    н/о 
+7.9 +5.7 86 +9  1006.7  -0.3  746  291           
00 24.09.18 160 (Ю) 1-2  н/о    н/о 
+7.3 +6.3 93 +8  1004.5  -2.2  744  291           
03 24.09.18 030 (СВ) 1-1  н/о    н/о 
+7.3 +6.8 97 +8  1003.1  -1.4  743  291           
06 24.09.18 010 (С) 1-1  н/о    н/о 
+7.4 +7.1 98 +8  1002.3  -0.7  743  290           
09 24.09.18 350 (С) 2-4  н/о    н/о 
+8.9 +7.9 93 +9  1002  -0.3  743  288           
12 24.09.18 310 (СЗ) 2-5  н/о    н/о 
+10.6 +8.6 87 +11  1002.3  0.4  743  287           
15 24.09.18 300 (СЗ) 4-8  н/о    н/о 
+9.1 +7.1 87 +8  1004.6  2.1  745  289           
18 24.09.18 300 (СЗ) 3-5  н/о    н/о 
+7.8 +5.6 86 +7  1007.1  2.4  746  291           
21 24.09.18 270 (З) 2-4  н/о    н/о 
+6.7 +5.1 90 +7  1009.6  2.4  748  293           
00 25.09.18 270 (З) 2-4  н/о    н/о 
+5.3 +3.9 91 +5  1011.8  2.1  750  296           
03 25.09.18 260 (З) 2-4  н/о    н/о 
+4.5 +3.4 93 +4  1013.9  751  297           
06 25.09.18 280 (З) 3-6  н/о    н/о 
+5.6 +3.3 85 +5  1016  2.1  753  297           
09 25.09.18 300 (СЗ) 4-10  н/о    н/о 
+8.9 +2.4 64 +8  1018.7  2.7  755  294           
12 25.09.18 320 (СЗ) 5-9  н/о    н/о 
+10.2 -2.3 41 +9  1020.1  1.5  756  294           
15 25.09.18 310 (СЗ) 4-8  н/о    н/о 
+10 -5.2 34 +9  1022.1  758  295           
Время (UTC), дата Ветер
(°,м/с) 
Видим.   Явления Облачность Т
(°С)
Тd
(°С)
f(%) Тe
(°С)
Pmin
(гПа)
dP
(гПа)
Po
(мм)
O2
(г/м3)
Тmin Tmax R s Состояние
почвы

Для получения пояснительной информации подведите курсор к названию столбца.

ПОГОДА в Даугавпилсе - архив

Всё, что Вы хотите узнать о погоде в Даугавпилсе - удобно и подробно!

Выберите нужную дату (начиная с 1 января 2015* года) и нажмите кнопку "Найти".
Будут отображены архивные сводки погоды по пункту Даугавпилс, начиная с указанной даты.


Отображать данные в формате CSV (для использования в таблицах Excel)


Внимание! Наш архив погоды предназначен исключительно для личного некоммерческого использования в познавательных целях. Если Вам необходимы официальные справки о состоянии погоды (для производственных, юридических, коммерческих и т.п. целей), обращайтесь в органы Росгидромета.

*Примечание: данная дата относится к архиву по метеостанциям СССР (Россия, СНГ, Балтия).
Архив по метеостанциям Зарубежной Европы и Азии (кроме Китая) хранится 10 дней, по другим регионам земного шара (Китай, Африка, Америка, Австралия, Океания) - 1 день.

Даугавпилс - район местоположения метеостанции


Название, широта, долгота, высота метеостанции:
Даугавпилс 55.9°ш. 26.6°д. 122 м над ур. моря [Латвия]

Дополнительная информация

В oтличие oт бoльшинства пoгoдных сайтoв мы публикуем пoдрoбную метеoинфoрмацию в детальнoм прoфессиoнальнoм фoрмате.

Характеристики температуры и влажнoсти вoздуха измеряются на высoте 2 м в тени вдали oт зданий и деревьев.
Скoрoсть ветра измеряется на высoте 10 м (на урoвне рoста челoвека скoрoсть ветра ниже в 1.5-2 раза). Если метеoстанция нахoдится в гoрoде или в лесу, тo скoрoсть ветра занижена на 2-4 м/с пo сравнению с oткрытым местoм. Скoрoсть ветра над акватoриями крупных рек и oзёр, а также на вершинах хoлмoв на 2-5 м/с выше, чем в oбычных услoвиях.
Атмoсфернoе давление в разных тoчках местнoсти мoжет значительнo oтличаться oт давления на метеoстанции, в зависимoсти oт услoвий рельефа (при пoдъёме на 10 м давление пoнижается примернo на 1 мм рт.ст.).